^^
Your Local Weather - Clay, NY Station Historical Data
Daily Summary for April 6, 2017 Units:  English    Metric   Both
« Previous Day
Next Day »
Daily Weekly Monthly Yearly Custom
  High: Low: Average:
Temperature: 46.3 °F 39.8 °F 42.5 °F
Dew Point: 41.2 °F 36.4 °F 38.9 °F
Humidity: 93% 79% 87%
Wind Speed: 8.0mph 0.0mph 4.4mph
Wind Gust: 16.0mph - -
Wind- - East
Pressure: 29.82 in 29.07 in -
Precipitation: 1.10 in    
Historical Graphs
 
 
Tabular Data for April 6, 2017
Time Temperature Dew Point Pressure Wind Wind Speed Wind Gust Humidity Rainfall Rate (Hourly) solar
00:02 41.0 °F 36.5 °F 29.82 in ENE 4.0 mph 5.0 mph 84% 0.00 in 0 W/m2
00:08 40.9 °F 36.4 °F 29.82 in ENE 4.0 mph 5.0 mph 84% 0.00 in 0 W/m2
00:14 41.0 °F 36.5 °F 29.82 in East 4.0 mph 7.0 mph 84% 0.00 in 0 W/m2
00:20 41.1 °F 36.6 °F 29.82 in East 4.0 mph 4.0 mph 84% 0.00 in 0 W/m2
00:26 40.9 °F 36.4 °F 29.81 in East 4.0 mph 7.0 mph 84% 0.00 in 0 W/m2
00:32 40.9 °F 36.7 °F 29.81 in East 4.0 mph 8.0 mph 85% 0.00 in 0 W/m2
00:38 40.8 °F 36.6 °F 29.80 in East 4.0 mph 8.0 mph 85% 0.00 in 0 W/m2
00:44 40.8 °F 36.6 °F 29.79 in SE 4.0 mph 7.0 mph 85% 0.00 in 0 W/m2
00:50 40.8 °F 36.6 °F 29.79 in ENE 4.0 mph 4.0 mph 85% 0.00 in 0 W/m2
00:56 40.8 °F 36.6 °F 29.79 in East 3.0 mph 4.0 mph 85% 0.00 in 0 W/m2
01:02 40.9 °F 36.7 °F 29.78 in ENE 3.0 mph 5.0 mph 85% 0.00 in 0 W/m2
01:08 41.2 °F 36.7 °F 29.78 in ENE 5.0 mph 5.0 mph 84% 0.00 in 0 W/m2
01:14 41.5 °F 37.0 °F 29.77 in ESE 5.0 mph 5.0 mph 84% 0.00 in 0 W/m2
01:20 41.6 °F 37.1 °F 29.76 in ENE 4.0 mph 4.0 mph 84% 0.00 in 0 W/m2
01:26 41.8 °F 37.0 °F 29.75 in ENE 5.0 mph 11.0 mph 83% 0.00 in 0 W/m2
01:32 41.9 °F 37.1 °F 29.75 in ESE 5.0 mph 5.0 mph 83% 0.00 in 0 W/m2
01:38 42.1 °F 37.3 °F 29.75 in ENE 5.0 mph 9.0 mph 83% 0.00 in 0 W/m2
01:44 42.4 °F 37.3 °F 29.75 in East 5.0 mph 5.0 mph 82% 0.00 in 0 W/m2
01:50 42.7 °F 37.6 °F 29.75 in NE 5.0 mph 6.0 mph 82% 0.00 in 0 W/m2
01:56 42.9 °F 37.8 °F 29.74 in East 5.0 mph 6.0 mph 82% 0.00 in 0 W/m2
02:02 43.2 °F 37.8 °F 29.74 in ENE 5.0 mph 5.0 mph 81% 0.00 in 0 W/m2
02:08 43.5 °F 37.7 °F 29.73 in ENE 5.0 mph 7.0 mph 80% 0.00 in 0 W/m2
02:14 43.6 °F 37.8 °F 29.72 in ESE 5.0 mph 10.0 mph 80% 0.00 in 0 W/m2
02:20 43.8 °F 38.0 °F 29.72 in ENE 6.0 mph 6.0 mph 80% 0.00 in 0 W/m2
02:26 43.9 °F 38.1 °F 29.72 in ENE 5.0 mph 6.0 mph 80% 0.00 in 0 W/m2
02:32 44.0 °F 38.2 °F 29.72 in ENE 4.0 mph 4.0 mph 80% 0.00 in 0 W/m2
02:38 44.1 °F 38.0 °F 29.71 in East 5.0 mph 11.0 mph 79% 0.00 in 0 W/m2
02:44 44.1 °F 38.0 °F 29.70 in ENE 6.0 mph 11.0 mph 79% 0.00 in 0 W/m2
02:50 44.1 °F 38.0 °F 29.70 in ESE 5.0 mph 5.0 mph 79% 0.00 in 0 W/m2
02:56 44.2 °F 38.1 °F 29.70 in East 5.0 mph 8.0 mph 79% 0.00 in 0 W/m2
03:02 44.3 °F 38.2 °F 29.70 in ESE 4.0 mph 10.0 mph 79% 0.00 in 0 W/m2
03:08 44.3 °F 38.2 °F 29.69 in East 4.0 mph 10.0 mph 79% 0.00 in 0 W/m2
03:14 44.3 °F 38.2 °F 29.69 in NE 3.0 mph 6.0 mph 79% 0.00 in 0 W/m2
03:20 44.3 °F 38.2 °F 29.69 in ENE 4.0 mph 4.0 mph 79% 0.00 in 0 W/m2
03:26 44.2 °F 38.1 °F 29.67 in East 5.0 mph 8.0 mph 79% 0.00 in 0 W/m2
03:32 44.2 °F 38.1 °F 29.67 in East 7.0 mph 11.0 mph 79% 0.00 in 0 W/m2
03:38 44.2 °F 38.1 °F 29.68 in ENE 6.0 mph 11.0 mph 79% 0.00 in 0 W/m2
03:44 44.1 °F 38.0 °F 29.68 in ESE 4.0 mph 6.0 mph 79% 0.00 in 0 W/m2
03:50 44.1 °F 38.3 °F 29.67 in SE 6.0 mph 6.0 mph 80% 0.00 in 0 W/m2
03:56 44.1 °F 38.3 °F 29.67 in East 6.0 mph 6.0 mph 80% 0.00 in 0 W/m2
04:02 44.1 °F 38.3 °F 29.67 in ENE 5.0 mph 6.0 mph 80% 0.00 in 0 W/m2
04:08 44.0 °F 38.2 °F 29.67 in NE 5.0 mph 6.0 mph 80% 0.00 in 0 W/m2
04:14 44.1 °F 38.3 °F 29.66 in East 5.0 mph 9.0 mph 80% 0.00 in 0 W/m2
04:20 44.1 °F 38.3 °F 29.66 in ENE 5.0 mph 8.0 mph 80% 0.00 in 0 W/m2
04:26 44.2 °F 38.4 °F 29.66 in ENE 5.0 mph 8.0 mph 80% 0.00 in 0 W/m2
04:32 44.2 °F 38.4 °F 29.66 in ENE 5.0 mph 5.0 mph 80% 0.00 in 0 W/m2
04:38 44.3 °F 38.5 °F 29.65 in NE 5.0 mph 11.0 mph 80% 0.00 in 0 W/m2
04:44 44.3 °F 38.5 °F 29.65 in ENE 5.0 mph 7.0 mph 80% 0.00 in 0 W/m2
04:50 44.4 °F 38.6 °F 29.65 in ENE 4.0 mph 4.0 mph 80% 0.00 in 0 W/m2
04:56 44.5 °F 38.7 °F 29.64 in ENE 5.0 mph 8.0 mph 80% 0.00 in 0 W/m2
05:02 44.7 °F 38.9 °F 29.64 in ENE 6.0 mph 7.0 mph 80% 0.00 in 0 W/m2
05:08 44.7 °F 38.6 °F 29.63 in ENE 6.0 mph 7.0 mph 79% 0.00 in 0 W/m2
05:14 44.7 °F 38.9 °F 29.63 in ENE 6.0 mph 9.0 mph 80% 0.00 in 0 W/m2
05:20 44.7 °F 38.9 °F 29.63 in ENE 5.0 mph 5.0 mph 80% 0.00 in 0 W/m2
05:26 44.7 °F 38.9 °F 29.63 in East 4.0 mph 10.0 mph 80% 0.00 in 0 W/m2
05:32 44.6 °F 38.8 °F 29.63 in ESE 4.0 mph 4.0 mph 80% 0.00 in 0 W/m2
05:38 44.7 °F 38.9 °F 29.63 in East 5.0 mph 7.0 mph 80% 0.00 in 0 W/m2
05:44 44.6 °F 39.1 °F 29.62 in ENE 4.0 mph 5.0 mph 81% 0.00 in 0 W/m2
05:50 44.7 °F 39.2 °F 29.62 in East 4.0 mph 4.0 mph 81% 0.00 in 0 W/m2
05:56 44.8 °F 39.3 °F 29.62 in NE 4.0 mph 5.0 mph 81% 0.00 in 0 W/m2
06:02 44.8 °F 39.3 °F 29.61 in East 4.0 mph 4.0 mph 81% 0.00 in 0 W/m2
06:08 44.8 °F 39.3 °F 29.61 in East 4.0 mph 7.0 mph 81% 0.00 in 0 W/m2
06:14 44.9 °F 39.4 °F 29.61 in SE 4.0 mph 7.0 mph 81% 0.00 in 0 W/m2
06:20 45.0 °F 39.5 °F 29.60 in ESE 5.0 mph 5.0 mph 81% 0.00 in 0 W/m2
06:26 45.1 °F 39.6 °F 29.59 in East 5.0 mph 7.0 mph 81% 0.00 in 0 W/m2
06:32 45.2 °F 39.7 °F 29.59 in NE 5.0 mph 6.0 mph 81% 0.00 in 0 W/m2
06:38 45.3 °F 39.8 °F 29.59 in East 5.0 mph 8.0 mph 81% 0.00 in 0 W/m2
06:44 45.5 °F 40.0 °F 29.59 in ESE 5.0 mph 5.0 mph 81% 0.00 in 0 W/m2
06:50 45.5 °F 40.0 °F 29.59 in ESE 5.0 mph 5.0 mph 81% 0.00 in 0 W/m2
06:56 45.6 °F 40.1 °F 29.59 in East 4.0 mph 5.0 mph 81% 0.00 in 0 W/m2
07:02 45.8 °F 40.0 °F 29.59 in ENE 4.0 mph 5.0 mph 80% 0.00 in 5 W/m2
07:08 45.8 °F 40.0 °F 29.58 in East 4.0 mph 7.0 mph 80% 0.00 in 9 W/m2
07:14 45.9 °F 40.1 °F 29.58 in East 5.0 mph 10.0 mph 80% 0.00 in 9 W/m2
07:20 46.1 °F 40.3 °F 29.58 in ESE 6.0 mph 6.0 mph 80% 0.00 in 11 W/m2
07:26 46.1 °F 40.3 °F 29.58 in East 5.0 mph 7.0 mph 80% 0.00 in 12 W/m2
07:32 46.1 °F 40.3 °F 29.58 in East 4.0 mph 7.0 mph 80% 0.00 in 14 W/m2
07:38 46.2 °F 40.4 °F 29.57 in East 4.0 mph 7.0 mph 80% 0.00 in 9 W/m2
07:44 46.2 °F 40.4 °F 29.57 in East 3.0 mph 4.0 mph 80% 0.00 in 11 W/m2
07:50 46.3 °F 40.5 °F 29.57 in East 4.0 mph 4.0 mph 80% 0.00 in 11 W/m2
07:56 46.1 °F 40.6 °F 29.56 in East 3.0 mph 8.0 mph 81% 0.00 in 11 W/m2
08:02 45.8 °F 40.9 °F 29.56 in East 2.0 mph 3.0 mph 83% 0.00 in 14 W/m2
08:08 45.2 °F 40.7 °F 29.56 in ESE 3.0 mph 6.0 mph 84% 0.07 in 14 W/m2
08:14 44.8 °F 40.6 °F 29.56 in NE 3.0 mph 4.0 mph 85% 0.11 in 25 W/m2
08:20 44.4 °F 40.8 °F 29.55 in East 3.0 mph 5.0 mph 87% 0.12 in 30 W/m2
08:26 44.2 °F 40.9 °F 29.54 in East 3.0 mph 5.0 mph 88% 0.05 in 46 W/m2
08:32 44.0 °F 40.7 °F 29.54 in ESE 5.0 mph 5.0 mph 88% 0.00 in 32 W/m2
08:38 43.9 °F 40.9 °F 29.53 in East 5.0 mph 10.0 mph 89% 0.00 in 46 W/m2
08:44 43.9 °F 40.9 °F 29.52 in East 6.0 mph 6.0 mph 89% 0.00 in 128 W/m2
08:50 43.9 °F 40.9 °F 29.51 in East 5.0 mph 6.0 mph 89% 0.00 in 74 W/m2
08:56 43.9 °F 40.9 °F 29.51 in East 5.0 mph 7.0 mph 89% 0.00 in 46 W/m2
09:02 43.9 °F 40.9 °F 29.52 in East 5.0 mph 6.0 mph 89% 0.00 in 46 W/m2
09:08 43.9 °F 40.9 °F 29.52 in ESE 5.0 mph 6.0 mph 89% 0.00 in 54 W/m2
09:14 43.9 °F 40.9 °F 29.52 in East 4.0 mph 7.0 mph 89% 0.00 in 46 W/m2
09:20 43.9 °F 40.9 °F 29.51 in ENE 5.0 mph 5.0 mph 89% 0.00 in 74 W/m2
09:26 43.9 °F 40.9 °F 29.51 in East 5.0 mph 5.0 mph 89% 0.00 in 98 W/m2
09:32 44.0 °F 41.0 °F 29.49 in ENE 4.0 mph 5.0 mph 89% 0.00 in 116 W/m2
09:38 44.2 °F 41.2 °F 29.50 in East 4.0 mph 7.0 mph 89% 0.00 in 132 W/m2
09:44 44.2 °F 40.9 °F 29.48 in East 5.0 mph 8.0 mph 88% 0.00 in 98 W/m2
09:50 44.3 °F 41.0 °F 29.48 in East 6.0 mph 6.0 mph 88% 0.00 in 93 W/m2
09:56 44.3 °F 41.0 °F 29.50 in East 5.0 mph 7.0 mph 88% 0.00 in 72 W/m2
10:02 44.4 °F 40.8 °F 29.49 in East 5.0 mph 9.0 mph 87% 0.00 in 65 W/m2
10:08 44.2 °F 40.6 °F 29.49 in ENE 5.0 mph 9.0 mph 87% 0.00 in 47 W/m2
10:14 44.1 °F 40.5 °F 29.48 in East 5.0 mph 5.0 mph 87% 0.00 in 58 W/m2
10:20 44.0 °F 40.4 °F 29.48 in ENE 5.0 mph 5.0 mph 87% 0.00 in 77 W/m2
10:26 44.0 °F 40.4 °F 29.48 in SE 5.0 mph 5.0 mph 87% 0.00 in 63 W/m2
10:32 44.1 °F 40.5 °F 29.48 in ENE 3.0 mph 4.0 mph 87% 0.00 in 51 W/m2
10:38 44.1 °F 40.2 °F 29.48 in ENE 3.0 mph 7.0 mph 86% 0.00 in 53 W/m2
10:44 44.1 °F 40.2 °F 29.48 in ENE 5.0 mph 12.0 mph 86% 0.00 in 54 W/m2
10:50 44.2 °F 40.3 °F 29.47 in ESE 5.0 mph 5.0 mph 86% 0.00 in 104 W/m2
10:56 44.3 °F 40.1 °F 29.47 in ESE 5.0 mph 7.0 mph 85% 0.00 in 91 W/m2
11:02 44.3 °F 40.1 °F 29.47 in East 4.0 mph 5.0 mph 85% 0.00 in 77 W/m2
11:08 44.2 °F 40.0 °F 29.47 in East 4.0 mph 7.0 mph 85% 0.00 in 47 W/m2
11:14 44.2 °F 40.0 °F 29.47 in East 5.0 mph 6.0 mph 85% 0.00 in 60 W/m2
11:20 44.2 °F 40.0 °F 29.47 in ENE 4.0 mph 4.0 mph 85% 0.00 in 47 W/m2
11:26 44.0 °F 39.8 °F 29.47 in NE 4.0 mph 7.0 mph 85% 0.00 in 40 W/m2
11:32 43.8 °F 39.6 °F 29.46 in ENE 6.0 mph 6.0 mph 85% 0.00 in 28 W/m2
11:38 43.5 °F 39.3 °F 29.45 in East 7.0 mph 12.0 mph 85% 0.00 in 40 W/m2
11:44 43.4 °F 39.5 °F 29.45 in East 6.0 mph 7.0 mph 86% 0.00 in 39 W/m2
11:50 43.1 °F 39.2 °F 29.45 in ENE 5.0 mph 5.0 mph 86% 0.11 in 40 W/m2
11:56 42.8 °F 39.2 °F 29.45 in ENE 6.0 mph 8.0 mph 87% 0.05 in 39 W/m2
12:02 42.5 °F 38.9 °F 29.45 in ENE 5.0 mph 6.0 mph 87% 0.00 in 49 W/m2
12:08 42.2 °F 38.9 °F 29.44 in ENE 5.0 mph 8.0 mph 88% 0.00 in 58 W/m2
12:14 42.1 °F 38.8 °F 29.44 in ENE 6.0 mph 8.0 mph 88% 0.00 in 65 W/m2
12:20 42.0 °F 38.7 °F 29.42 in East 6.0 mph 6.0 mph 88% 0.00 in 91 W/m2
12:26 42.0 °F 39.0 °F 29.44 in East 6.0 mph 8.0 mph 89% 0.18 in 53 W/m2
12:32 41.7 °F 38.7 °F 29.42 in NE 6.0 mph 8.0 mph 89% 0.32 in 76 W/m2
12:38 41.6 °F 38.9 °F 29.42 in ESE 7.0 mph 9.0 mph 90% 0.10 in 86 W/m2
12:44 41.4 °F 38.7 °F 29.42 in ENE 6.0 mph 10.0 mph 90% 0.05 in 58 W/m2
12:50 41.3 °F 38.6 °F 29.42 in ESE 7.0 mph 7.0 mph 90% 0.00 in 102 W/m2
12:56 41.3 °F 38.6 °F 29.42 in East 7.0 mph 10.0 mph 90% 0.00 in 79 W/m2
13:04 41.3 °F 38.6 °F 29.42 in ENE 7.0 mph 7.0 mph 90% 0.00 in 91 W/m2
13:10 41.6 °F 39.2 °F 29.41 in East 5.0 mph 7.0 mph 91% 0.00 in 98 W/m2
13:16 41.9 °F 39.5 °F 29.40 in SE 5.0 mph 7.0 mph 91% 0.00 in 225 W/m2
13:22 42.2 °F 39.8 °F 29.39 in ENE 5.0 mph 11.0 mph 91% 0.00 in 185 W/m2
13:28 42.4 °F 39.7 °F 29.39 in NNE 6.0 mph 11.0 mph 90% 0.00 in 225 W/m2
13:34 42.6 °F 39.9 °F 29.39 in ENE 4.0 mph 6.0 mph 90% 0.00 in 185 W/m2
13:40 42.7 °F 40.0 °F 29.39 in East 4.0 mph 5.0 mph 90% 0.00 in 167 W/m2
13:46 42.9 °F 39.9 °F 29.38 in ENE 5.0 mph 11.0 mph 89% 0.00 in 149 W/m2
13:52 43.0 °F 40.0 °F 29.36 in ENE 6.0 mph 7.0 mph 89% 0.00 in 137 W/m2
13:58 43.4 °F 40.4 °F 29.36 in SE 5.0 mph 7.0 mph 89% 0.00 in 128 W/m2
14:04 43.4 °F 40.1 °F 29.36 in ENE 5.0 mph 5.0 mph 88% 0.00 in 102 W/m2
14:10 43.3 °F 40.0 °F 29.34 in ENE 5.0 mph 5.0 mph 88% 0.00 in 93 W/m2
14:16 43.1 °F 39.8 °F 29.33 in NNE 5.0 mph 5.0 mph 88% 0.00 in 104 W/m2
14:22 42.9 °F 39.6 °F 29.33 in ENE 5.0 mph 10.0 mph 88% 0.00 in 100 W/m2
14:28 42.9 °F 39.6 °F 29.32 in East 6.0 mph 10.0 mph 88% 0.00 in 98 W/m2
14:34 42.8 °F 39.5 °F 29.31 in ENE 6.0 mph 14.0 mph 88% 0.00 in 90 W/m2
14:42 42.7 °F 39.4 °F 29.31 in ENE 5.0 mph 6.0 mph 88% 0.00 in 65 W/m2
14:48 42.9 °F 39.6 °F 29.30 in ENE 3.0 mph 6.0 mph 88% 0.00 in 51 W/m2
14:54 43.1 °F 40.1 °F 29.31 in ENE 3.0 mph 5.0 mph 89% 0.00 in 39 W/m2
15:00 43.3 °F 40.3 °F 29.30 in ENE 2.0 mph 3.0 mph 89% 0.00 in 37 W/m2
15:06 43.9 °F 41.2 °F 29.30 in East 2.0 mph 3.0 mph 90% 0.00 in 39 W/m2
15:12 44.1 °F 41.1 °F 29.31 in ENE 6.0 mph 11.0 mph 89% 0.13 in 35 W/m2
15:18 43.0 °F 39.7 °F 29.30 in ENE 7.0 mph 11.0 mph 88% 0.17 in 39 W/m2
15:24 42.2 °F 39.2 °F 29.30 in East 6.0 mph 8.0 mph 89% 0.22 in 35 W/m2
15:30 41.6 °F 38.6 °F 29.29 in ESE 7.0 mph 8.0 mph 89% 0.29 in 35 W/m2
15:36 41.2 °F 38.5 °F 29.28 in NNE 7.0 mph 11.0 mph 90% 0.27 in 39 W/m2
15:42 41.0 °F 38.6 °F 29.28 in ENE 6.0 mph 6.0 mph 91% 0.19 in 37 W/m2
15:48 40.9 °F 38.5 °F 29.28 in ENE 6.0 mph 7.0 mph 91% 0.11 in 39 W/m2
15:54 40.8 °F 38.4 °F 29.28 in ENE 6.0 mph 9.0 mph 91% 0.15 in 35 W/m2
16:00 40.8 °F 38.4 °F 29.28 in East 6.0 mph 6.0 mph 91% 0.15 in 40 W/m2
16:04 40.8 °F 38.7 °F 29.28 in ESE 6.0 mph 8.0 mph 92% 0.20 in 39 W/m2
16:10 40.7 °F 38.6 °F 29.27 in SSW 6.0 mph 6.0 mph 92% 0.22 in 40 W/m2
16:16 40.6 °F 38.5 °F 29.26 in ENE 8.0 mph 8.0 mph 92% 0.23 in 42 W/m2
16:22 40.5 °F 38.4 °F 29.26 in East 6.0 mph 9.0 mph 92% 0.19 in 47 W/m2
16:28 40.4 °F 38.3 °F 29.25 in East 6.0 mph 11.0 mph 92% 0.15 in 44 W/m2
16:34 40.5 °F 38.4 °F 29.25 in East 7.0 mph 10.0 mph 92% 0.09 in 46 W/m2
16:40 40.5 °F 38.4 °F 29.25 in ENE 7.0 mph 9.0 mph 92% 0.12 in 44 W/m2
16:46 40.4 °F 38.3 °F 29.24 in ESE 6.0 mph 11.0 mph 92% 0.14 in 56 W/m2
16:52 40.5 °F 38.4 °F 29.23 in East 6.0 mph 7.0 mph 92% 0.11 in 60 W/m2
16:58 40.5 °F 38.4 °F 29.22 in East 6.0 mph 7.0 mph 92% 0.13 in 70 W/m2
17:04 40.6 °F 38.5 °F 29.22 in East 7.0 mph 7.0 mph 92% 0.10 in 70 W/m2
17:10 40.5 °F 38.4 °F 29.22 in East 6.0 mph 6.0 mph 92% 0.10 in 51 W/m2
17:16 40.4 °F 38.3 °F 29.21 in ENE 6.0 mph 11.0 mph 92% 0.07 in 37 W/m2
17:22 40.3 °F 38.2 °F 29.21 in NE 7.0 mph 16.0 mph 92% 0.04 in 28 W/m2
17:28 40.2 °F 38.1 °F 29.21 in ENE 7.0 mph 16.0 mph 92% 0.10 in 21 W/m2
17:34 40.1 °F 38.0 °F 29.20 in East 7.0 mph 13.0 mph 92% 0.10 in 18 W/m2
17:40 40.1 °F 37.7 °F 29.19 in South 7.0 mph 7.0 mph 91% 0.08 in 16 W/m2
17:46 40.0 °F 37.6 °F 29.19 in ENE 7.0 mph 7.0 mph 91% 0.10 in 16 W/m2
17:52 40.0 °F 37.9 °F 29.19 in East 5.0 mph 6.0 mph 92% 0.09 in 18 W/m2
17:58 40.0 °F 37.9 °F 29.19 in ENE 5.0 mph 8.0 mph 92% 0.13 in 16 W/m2
18:04 40.0 °F 37.9 °F 29.19 in East 6.0 mph 8.0 mph 92% 0.10 in 12 W/m2
18:10 40.0 °F 37.9 °F 29.18 in NE 5.0 mph 5.0 mph 92% 0.10 in 14 W/m2
18:16 39.9 °F 37.8 °F 29.18 in East 4.0 mph 7.0 mph 92% 0.18 in 12 W/m2
18:22 39.9 °F 37.8 °F 29.17 in ENE 5.0 mph 10.0 mph 92% 0.10 in 12 W/m2
18:28 39.9 °F 37.8 °F 29.17 in ENE 5.0 mph 10.0 mph 92% 0.12 in 11 W/m2
18:34 39.9 °F 37.8 °F 29.16 in NE 4.0 mph 6.0 mph 92% 0.18 in 7 W/m2
18:40 39.8 °F 37.7 °F 29.16 in NNE 6.0 mph 6.0 mph 92% 0.12 in 7 W/m2
18:46 39.8 °F 37.7 °F 29.16 in East 5.0 mph 7.0 mph 92% 0.13 in 7 W/m2
18:52 39.8 °F 37.7 °F 29.16 in SSE 4.0 mph 10.0 mph 92% 0.22 in 5 W/m2
18:58 39.8 °F 37.7 °F 29.16 in ENE 5.0 mph 10.0 mph 92% 0.23 in 5 W/m2
19:04 39.8 °F 37.7 °F 29.15 in ENE 5.0 mph 5.0 mph 92% 0.23 in 0 W/m2
19:10 39.8 °F 37.7 °F 29.15 in NE 4.0 mph 4.0 mph 92% 0.16 in 0 W/m2
19:16 39.8 °F 37.7 °F 29.14 in NNE 3.0 mph 4.0 mph 92% 0.13 in 0 W/m2
19:22 39.8 °F 37.7 °F 29.14 in East 2.0 mph 3.0 mph 92% 0.15 in 0 W/m2
19:28 39.8 °F 37.7 °F 29.14 in North 2.0 mph 3.0 mph 92% 0.12 in 0 W/m2
19:34 39.8 °F 37.7 °F 29.14 in NNE 2.0 mph 2.0 mph 92% 0.13 in 0 W/m2
19:40 39.9 °F 37.8 °F 29.13 in NE 3.0 mph 3.0 mph 92% 0.07 in 0 W/m2
19:46 39.8 °F 37.7 °F 29.12 in East 3.0 mph 5.0 mph 92% 0.14 in 0 W/m2
19:52 39.8 °F 37.7 °F 29.12 in ENE 4.0 mph 4.0 mph 92% 0.16 in 0 W/m2
19:58 39.8 °F 37.7 °F 29.11 in NNE 3.0 mph 5.0 mph 92% 0.08 in 0 W/m2
20:04 39.8 °F 37.7 °F 29.11 in ENE 2.0 mph 3.0 mph 92% 0.07 in 0 W/m2
20:10 39.9 °F 38.0 °F 29.11 in ENE 3.0 mph 5.0 mph 93% 0.13 in 0 W/m2
20:16 39.9 °F 38.0 °F 29.11 in ENE 3.0 mph 5.0 mph 93% 0.11 in 0 W/m2
20:22 39.9 °F 38.0 °F 29.11 in East 4.0 mph 5.0 mph 93% 0.08 in 0 W/m2
20:28 40.0 °F 38.1 °F 29.11 in NNE 4.0 mph 8.0 mph 93% 0.08 in 0 W/m2
20:34 40.0 °F 38.1 °F 29.11 in East 3.0 mph 3.0 mph 93% 0.08 in 0 W/m2
20:40 40.1 °F 38.2 °F 29.10 in ENE 2.0 mph 8.0 mph 93% 0.06 in 0 W/m2
20:46 40.1 °F 38.2 °F 29.10 in East 4.0 mph 8.0 mph 93% 0.06 in 0 W/m2
20:52 40.2 °F 38.3 °F 29.10 in NNW 3.0 mph 4.0 mph 93% 0.10 in 0 W/m2
20:58 40.2 °F 38.3 °F 29.11 in ENE 2.0 mph 4.0 mph 93% 0.05 in 0 W/m2
21:04 40.2 °F 38.3 °F 29.11 in ESE 3.0 mph 3.0 mph 93% 0.05 in 0 W/m2
21:10 40.3 °F 38.4 °F 29.11 in East 3.0 mph 3.0 mph 93% 0.12 in 0 W/m2
21:16 40.4 °F 38.5 °F 29.11 in ENE 3.0 mph 5.0 mph 93% 0.15 in 0 W/m2
21:22 40.4 °F 38.5 °F 29.10 in East 3.0 mph 3.0 mph 93% 0.20 in 0 W/m2
21:28 40.6 °F 38.7 °F 29.09 in East 2.0 mph 3.0 mph 93% 0.18 in 0 W/m2
21:34 40.7 °F 38.8 °F 29.09 in East 3.0 mph 3.0 mph 93% 0.24 in 0 W/m2
21:40 40.7 °F 38.8 °F 29.09 in East 2.0 mph 2.0 mph 93% 0.14 in 0 W/m2
21:46 40.7 °F 38.8 °F 29.09 in SE 2.0 mph 3.0 mph 93% 0.13 in 0 W/m2
21:52 40.7 °F 38.8 °F 29.09 in East 2.0 mph 2.0 mph 93% 0.12 in 0 W/m2
21:58 40.7 °F 38.8 °F 29.09 in ENE 2.0 mph 3.0 mph 93% 0.10 in 0 W/m2
22:04 40.7 °F 38.8 °F 29.09 in SSE 2.0 mph 3.0 mph 93% 0.10 in 0 W/m2
22:10 40.7 °F 38.8 °F 29.09 in East 1.0 mph 1.0 mph 93% 0.09 in 0 W/m2
22:16 40.7 °F 38.8 °F 29.08 in ENE 1.0 mph 3.0 mph 93% 0.07 in 0 W/m2
22:22 40.7 °F 38.8 °F 29.08 in SE 2.0 mph 3.0 mph 93% 0.12 in 0 W/m2
22:28 40.6 °F 38.7 °F 29.08 in ENE 1.0 mph 3.0 mph 93% 0.07 in 0 W/m2
22:34 40.6 °F 38.7 °F 29.08 in ENE 1.0 mph 1.0 mph 93% 0.07 in 0 W/m2
22:40 40.6 °F 38.7 °F 29.08 in Calm     93% 0.05 in 0 W/m2
22:46 40.6 °F 38.7 °F 29.08 in SSE 1.0 mph 2.0 mph 93% 0.04 in 0 W/m2
22:52 40.6 °F 38.7 °F 29.07 in SE 1.0 mph 1.0 mph 93% 0.04 in 0 W/m2
22:58 40.6 °F 38.7 °F 29.07 in Calm   1.0 mph 93% 0.04 in 0 W/m2
23:04 40.6 °F 38.7 °F 29.07 in Calm     93% 0.00 in 0 W/m2
23:10 40.6 °F 38.7 °F 29.08 in Calm     93% 0.00 in 0 W/m2
23:16 40.7 °F 38.8 °F 29.08 in Calm   1.0 mph 93% 0.00 in 0 W/m2
23:22 40.7 °F 38.8 °F 29.08 in Calm     93% 0.00 in 0 W/m2
23:28 40.8 °F 38.9 °F 29.08 in Calm   1.0 mph 93% 0.05 in 0 W/m2
23:34 40.8 °F 38.9 °F 29.08 in SSW 1.0 mph 1.0 mph 93% 0.05 in 0 W/m2
23:40 40.8 °F 38.9 °F 29.08 in SW 2.0 mph 2.0 mph 93% 0.04 in 0 W/m2
23:46 40.7 °F 38.8 °F 29.08 in WSW 2.0 mph 2.0 mph 93% 0.00 in 0 W/m2
23:52 40.6 °F 38.7 °F 29.08 in WSW 2.0 mph 2.0 mph 93% 0.00 in 0 W/m2
23:58 40.5 °F 38.6 °F 29.08 in West 2.0 mph 3.0 mph 93% 0.00 in 0 W/m2
Country Meadow, Clay, NY, USA
Compliments of Weather Underground - 2 mb